Wind_Speed
15 15 14 15 17 19 21 23 26 27 27 27 27 28 29 29 29 28 30 31 33 33 34 33 31 29 26 24 23 22 21 20 19 20 21 22 24 24 25 25 25 25 25 25 24 24 23 23 23 23 23 23 21 19 18 18 17 16 15 14 13 11 9 9 9 9 9 9 10 10 10 11 12 13 13 13 13 13 14 15 16 17 18 19 21
16 16 15 16 17 19 20 21 25 28 28 29 29 30 31 31 31 30 30 31 32 33 34 34 33 31 28 26 24 24 23 22 21 20 20 21 23 24 25 25 25 25 25 25 25 25 24 24 23 23 23 23 22 21 20 19 18 17 16 15 14 13 11 10 10 10 10 10 10 10 10 11 11 12 13 13 13 13 13 14 15 16 17 19 20
17 17 17 17 17 18 19 20 22 25 29 30 30 31 32 33 33 32 31 32 33 33 34 35 35 33 31 28 26 25 25 25 23 22 21 21 22 23 23 24 24 24 25 25 25 25 25 25 24 23 23 23 23 22 21 20 20 18 18 17 15 14 13 11 11 11 11 10 10 11 10 10 11 12 13 14 14 14 14 14 15 16 17 18 19
18 18 18 18 17 17 19 21 21 22 26 29 31 31 32 34 36 35 33 34 34 34 34 34 35 35 33 30 28 27 27 27 26 24 23 22 22 22 22 23 23 23 24 25 25 25 25 25 25 24 24 24 23 23 22 21 20 19 19 18 16 15 14 13 12 12 11 11 11 11 10 10 10 11 13 14 14 15 15 15 15 16 17 18 19
19 18 18 19 19 19 19 21 21 21 22 26 30 31 31 32 35 38 37 36 36 35 35 35 35 36 35 33 30 29 29 28 28 27 25 23 23 22 22 22 22 23 23 24 25 25 26 26 25 25 25 24 24 24 23 22 21 20 20 19 18 17 16 15 14 13 13 12 12 11 10 10 10 11 12 14 15 15 15 15 16 17 17 18 19
20 19 18 19 20 21 21 22 22 22 22 23 26 29 31 32 33 37 40 39 38 36 37 36 35 36 37 35 33 32 31 30 29 28 27 25 23 23 23 23 22 23 23 24 24 25 25 26 25 25 25 25 24 24 23 22 22 21 21 20 19 18 17 16 15 15 14 14 13 12 11 10 11 11 12 14 15 15 15 15 16 17 18 18 19
22 21 20 20 20 21 22 22 22 22 23 23 24 26 29 31 32 35 39 41 40 39 38 37 35 35 37 37 36 35 33 32 31 29 29 27 25 25 24 23 23 23 23 23 24 24 25 25 25 24 24 24 24 24 23 23 22 22 21 21 20 20 19 18 17 16 16 15 14 13 12 11 11 11 12 13 14 15 15 15 16 17 18 18 19
23 22 22 21 21 22 22 22 22 22 23 24 24 23 24 29 30 31 36 40 42 42 41 39 37 36 37 38 37 37 36 34 33 31 30 29 28 27 26 25 24 24 24 24 24 24 25 25 25 24 23 23 24 23 23 23 22 22 22 21 21 21 21 20 19 17 17 16 15 15 14 13 12 12 12 13 14 15 15 16 16 17 18 19 19
24 24 23 23 22 21 22 22 22 22 23 23 24 22 22 26 28 29 32 36 41 45 44 41 39 37 37 38 38 38 38 37 35 34 32 31 30 29 28 27 27 26 25 25 25 24 24 24 24 24 24 23 23 23 23 23 23 23 22 22 22 22 22 21 21 19 18 17 16 16 15 14 13 13 13 14 15 15 16 16 17 17 18 18 18
25 25 24 24 22 21 21 22 22 21 22 23 24 24 24 24 26 30 30 31 37 43 45 43 41 38 37 37 37 38 38 38 37 35 34 33 32 31 30 29 29 28 27 26 26 25 25 24 24 24 24 23 23 23 24 24 24 24 24 24 24 24 23 23 22 20 19 18 17 17 16 15 15 15 15 15 15 16 16 17 17 18 18 18 18
25 25 25 24 23 22 22 21 21 22 22 22 23 25 26 24 25 29 30 29 31 35 39 42 43 40 38 38 38 38 38 38 38 37 36 35 34 33 32 32 31 30 29 29 28 27 26 25 25 24 24 24 24 24 24 25 25 25 25 25 25 25 24 24 24 22 21 19 18 18 17 17 16 16 16 16 16 16 17 17 18 18 18 18 18
23 24 25 25 24 24 23 22 22 22 22 23 23 24 25 24 24 26 26 26 28 31 35 39 42 42 40 39 38 39 38 38 38 39 38 37 36 35 34 34 33 32 31 31 30 29 28 27 27 26 26 25 25 26 26 26 27 27 27 26 26 26 25 25 25 23 22 21 20 19 19 18 18 17 17 17 17 17 17 18 18 18 19 19 18
23 23 24 26 25 26 24 23 23 24 24 23 23 23 24 24 24 23 22 22 23 29 33 37 40 42 42 40 40 40 39 38 38 39 40 39 39 38 37 36 35 34 34 33 33 32 31 30 29 28 27 27 27 27 27 27 28 28 27 26 26 26 26 26 26 25 23 23 22 20 20 19 19 19 19 18 18 18 18 19 19 20 20 20 19
24 23 24 25 26 26 26 25 25 25 25 25 24 23 24 24 24 23 22 21 20 22 27 32 34 35 38 40 41 40 39 38 38 38 40 41 41 40 39 38 38 37 37 36 35 35 34 32 32 31 30 29 29 29 28 28 28 28 28 27 26 26 26 26 26 26 24 24 24 23 21 21 21 21 21 20 20 20 20 20 21 21 21 21 20
24 24 24 24 25 26 26 27 26 26 27 26 25 24 23 24 24 24 24 23 21 19 21 25 27 29 32 36 38 39 39 39 39 39 40 41 41 41 41 41 40 40 39 38 38 37 36 35 34 33 32 32 31 31 30 30 30 30 29 28 27 27 27 27 27 27 26 25 25 25 24 23 23 24 23 22 22 21 21 22 22 22 22 22 21
24 24 24 24 25 25 25 26 26 27 28 28 27 26 24 23 24 25 26 25 23 21 20 21 23 25 27 30 34 37 39 40 41 42 42 40 40 41 42 42 42 42 41 41 41 40 39 38 37 36 35 34 34 33 32 32 32 32 31 31 30 29 29 28 28 28 28 27 26 27 27 26 26 25 25 24 24 23 23 23 24 24 24 23 22
23 23 24 24 25 24 24 25 26 27 29 29 29 28 27 26 26 27 27 25 24 23 22 21 22 22 23 26 30 33 35 37 40 43 44 41 40 41 41 42 42 42 43 43 43 43 42 41 40 39 38 37 36 35 35 35 34 34 34 33 33 32 31 31 30 31 30 29 28 28 29 29 29 27 26 26 25 25 25 25 25 25 25 25 24
22 23 23 24 24 24 24 24 25 26 28 29 30 29 29 28 29 28 26 25 24 24 24 23 24 23 24 26 28 30 31 33 36 40 43 43 42 42 42 42 42 42 42 43 43 44 44 44 43 42 41 39 39 38 37 37 37 37 36 36 35 35 34 33 33 33 32 32 31 30 30 30 31 30 28 28 27 27 27 27 27 27 26 26 25
22 22 23 23 24 24 24 24 24 25 26 28 28 29 29 28 29 28 27 26 25 25 25 26 26 27 27 28 28 29 30 31 31 35 39 42 42 43 43 44 44 43 42 42 42 43 44 44 44 44 43 42 41 40 40 39 39 39 39 38 38 37 37 36 36 36 35 34 34 33 32 31 32 33 31 30 29 29 28 28 28 28 28 27 26
21 22 22 23 23 23 23 23 23 24 25 26 27 27 27 27 27 27 27 27 27 27 27 27 29 29 30 30 30 30 31 32 31 33 35 38 40 42 43 45 46 45 43 42 41 41 42 43 44 44 44 43 42 42 41 41 41 41 41 41 40 39 38 38 38 38 38 37 36 36 35 33 32 33 33 32 32 31 30 30 30 30 29 28 27
20 21 21 22 23 23 23 23 23 23 24 25 26 26 26 26 26 26 27 27 27 27 28 28 30 31 31 32 33 32 32 33 33 33 34 35 37 39 41 44 46 47 46 44 42 41 42 43 44 44 44 43 43 42 42 42 42 42 42 42 41 40 39 39 39 38 38 38 37 37 37 36 34 33 33 34 34 33 32 31 31 31 31 30 29
20 20 20 21 22 22 22 22 22 23 23 24 25 25 25 25 25 26 26 26 27 27 27 28 29 30 31 32 34 34 35 35 35 35 35 35 35 36 37 39 43 46 47 46 45 44 44 44 44 44 44 44 43 43 42 42 42 42 43 43 42 41 40 40 39 38 38 38 38 37 37 37 36 33 33 33 35 35 33 32 32 32 32 31 30
21 20 20 20 20 21 21 22 22 22 22 23 24 25 25 25 25 25 26 26 27 27 27 27 28 29 30 31 32 32 34 35 36 36 36 36 35 35 36 37 39 42 46 47 47 46 46 46 46 45 45 45 44 43 43 42 42 42 43 43 43 42 41 40 40 39 38 38 38 38 38 38 38 36 34 33 34 35 35 33 33 33 33 33 32
22 21 20 19 19 20 21 21 22 22 23 23 23 24 25 25 25 26 26 27 27 27 27 27 28 29 29 30 30 31 31 32 34 34 35 35 35 35 36 38 38 39 42 46 47 47 47 48 49 48 47 47 46 45 44 44 43 43 44 44 43 43 42 41 41 40 39 39 39 39 38 38 39 39 36 34 33 35 35 34 34 34 34 33 32
23 22 21 21 20 20 20 21 22 22 23 23 24 24 25 26 26 26 26 27 27 28 28 27 28 28 29 29 29 30 30 31 32 33 33 34 34 34 35 37 39 38 40 44 45 46 48 49 51 51 51 50 49 48 47 47 46 46 46 46 45 45 44 44 43 42 41 42 41 41 40 40 40 40 39 36 33 34 35 35 34 34 34 33 33
23 22 22 22 22 21 21 21 21 22 22 23 24 25 26 27 27 28 27 27 28 28 28 28 28 29 29 30 30 30 31 31 31 32 33 33 33 33 33 35 37 38 39 42 43 44 44 46 50 53 53 52 52 51 50 50 50 49 50 49 48 48 48 47 46 45 44 45 44 44 43 43 43 43 43 41 37 35 36 36 34 34 34 33 33
23 22 22 22 22 22 22 21 21 21 21 22 23 24 25 27 28 29 29 29 29 28 28 29 29 30 30 30 31 31 31 32 32 32 33 34 34 34 34 34 36 36 38 39 40 41 41 42 47 52 53 53 53 53 52 52 51 50 50 50 50 51 52 51 49 48 47 47 47 47 47 47 47 47 47 45 42 39 38 37 35 34 34 34 33
23 23 22 22 22 22 21 21 21 21 22 22 23 24 25 26 27 29 30 31 31 31 30 29 30 30 31 31 31 32 32 33 33 34 34 35 35 36 36 36 36 37 37 37 38 39 40 41 44 49 52 54 54 54 54 53 53 53 52 51 50 50 51 51 51 50 49 48 49 50 51 50 50 50 50 50 47 44 42 40 37 36 36 35 35
23 23 23 23 23 23 23 23 23 23 23 24 25 25 26 27 28 29 30 31 32 33 33 33 32 32 32 32 33 33 33 34 34 35 36 36 37 37 38 38 37 37 38 37 37 37 39 41 43 46 50 53 54 54 55 54 54 55 54 53 53 51 51 52 51 50 49 49 50 50 51 51 51 51 51 51 50 47 45 43 40 39 39 38 37
25 25 25 25 25 25 25 25 25 25 25 26 26 27 27 28 29 30 31 32 33 34 35 36 36 36 36 36 36 36 36 36 37 37 38 38 39 39 40 40 40 40 39 39 37 37 38 40 42 44 47 51 53 53 54 53 54 54 54 53 53 53 54 55 54 54 52 51 50 48 46 46 46 45 45 46 48 48 47 45 43 42 42 41 40
28 28 28 28 27 27 27 27 27 27 27 28 28 28 29 29 30 31 32 33 34 35 36 37 38 39 40 41 41 40 40 40 40 40 41 41 41 42 42 42 42 42 42 42 40 38 38 40 41 43 46 48 50 52 52 52 53 53 53 52 51 51 52 53 53 52 50 50 50 48 45 42 40 38 37 38 41 44 45 46 46 46 46 45 44
30 31 31 31 30 30 29 29 29 29 30 30 30 31 31 32 32 32 33 34 35 36 36 37 38 40 41 43 43 44 44 44 44 44 44 44 44 44 45 45 45 45 45 45 43 40 39 41 42 43 45 46 48 50 51 51 52 52 52 52 51 51 51 49 49 49 48 48 49 49 48 45 41 40 38 38 39 41 42 43 44 45 46 47 47
33 33 33 33 33 33 32 32 31 31 31 31 32 32 33 33 34 34 35 36 37 37 38 38 39 40 41 42 44 45 46 46 46 46 46 47 47 46 47 47 47 48 48 48 47 44 42 43 44 44 45 47 47 48 49 49 50 51 51 52 51 52 52 51 50 49 47 47 49 52 52 50 47 47 46 46 46 46 46 45 44 44 44 45 46
34 34 34 34 35 35 35 34 33 32 32 32 33 33 34 34 35 36 36 37 38 39 40 41 41 42 42 43 44 45 46 47 47 48 48 49 49 49 49 49 49 50 50 50 50 48 45 44 46 46 46 48 48 47 48 49 50 50 51 51 51 51 53 53 52 49 45 42 45 50 52 51 50 50 49 49 49 49 49 48 47 46 46 46 46
34 35 35 35 35 35 35 35 34 34 33 33 34 35 35 36 37 37 38 39 40 40 41 42 43 44 45 45 46 47 47 48 49 49 50 50 50 51 51 51 51 51 52 52 52 51 49 47 47 48 48 49 49 48 49 50 50 51 51 51 50 50 52 55 55 53 50 46 44 47 50 48 48 49 48 46 46 46 46 46 45 45 47 49 49
33 33 33 33 34 34 34 34 34 34 35 35 35 36 36 37 37 38 39 39 40 41 42 43 44 45 46 47 48 49 50 50 50 51 52 52 52 52 52 53 54 53 53 54 54 54 52 50 49 50 50 51 50 50 51 51 51 51 50 50 50 50 51 53 55 55 56 55 53 55 56 52 50 50 49 47 45 43 43 43 43 44 45 47 49
34 34 33 32 32 32 33 34 34 34 35 35 36 36 36 36 36 37 37 38 39 39 40 41 42 43 44 45 47 49 51 52 52 53 53 54 54 54 54 54 55 56 56 56 56 56 55 53 52 52 52 53 53 53 53 53 52 51 51 50 50 49 49 50 52 53 55 57 59 60 60 57 53 51 51 49 46 42 41 43 43 42 42 43 44
36 36 35 33 32 33 33 34 34 34 34 34 35 35 35 34 34 35 35 36 36 37 38 39 40 41 42 43 44 46 48 50 52 53 54 55 55 56 56 56 56 57 58 58 59 59 58 57 55 54 54 55 55 55 55 55 54 53 52 51 50 49 48 48 50 52 53 55 57 59 59 57 55 54 52 50 48 44 43 44 43 42 42 41 40
39 38 37 35 34 34 34 34 33 33 33 33 33 33 32 32 32 32 33 34 35 36 37 38 39 40 41 42 43 44 46 47 49 51 53 55 56 56 57 57 58 58 59 60 61 61 61 61 59 57 56 57 57 57 57 57 56 55 53 52 51 50 50 49 49 50 51 52 53 55 57 57 56 56 54 53 51 48 45 44 44 41 39 38 38
41 40 40 39 37 37 36 35 34 33 33 32 32 32 31 31 31 32 33 34 35 36 37 38 39 40 41 42 42 43 45 46 48 49 50 52 54 55 57 58 58 59 59 60 61 62 63 63 62 61 59 58 59 59 59 58 57 56 54 53 52 51 52 52 50 49 49 50 50 51 53 55 56 56 56 55 53 51 47 45 45 41 37 35 35
41 41 42 42 42 40 39 37 36 35 34 33 32 32 32 31 32 33 34 36 37 38 39 39 40 41 42 43 43 44 45 47 48 49 51 52 53 54 55 57 58 59 59 60 61 62 63 64 64 63 62 61 60 60 60 60 59 57 56 55 53 51 52 53 52 51 49 49 50 50 50 52 53 54 55 54 53 52 49 47 46 44 41 39 36
40 42 43 44 45 44 42 40 39 38 36 35 35 35 34 33 33 34 36 38 40 40 41 42 43 44 45 46 47 48 49 49 50 51 52 53 54 55 55 55 57 58 59 60 60 61 63 64 64 64 64 63 61 61 61 60 60 59 58 57 55 53 53 54 54 53 52 50 50 50 49 51 52 53 52 51 50 51 49 47 46 46 46 46 44
42 42 43 44 46 47 46 44 42 40 39 38 38 38 37 36 36 37 38 40 41 42 43 44 45 46 47 49 50 51 51 53 54 54 54 54 55 56 57 57 57 58 59 59 60 60 62 63 64 65 65 64 62 61 61 61 61 60 59 59 57 56 54 53 52 53 53 53 53 52 51 51 51 52 51 49 48 49 49 47 47 47 48 48 47
45 44 43 45 47 48 48 47 45 43 42 41 41 40 40 40 39 39 40 41 42 43 45 46 47 47 49 50 51 52 52 54 55 57 58 58 57 57 58 58 59 59 60 60 60 60 61 63 64 64 65 64 62 61 62 62 61 61 61 61 60 57 54 52 51 52 53 55 56 55 53 50 50 50 50 49 48 47 48 49 50 50 50 49 48
45 44 44 46 48 49 49 49 47 45 44 44 44 44 44 43 42 42 42 42 43 45 46 47 48 49 50 52 53 54 55 56 57 59 60 61 60 59 59 59 60 61 61 62 61 61 62 62 63 63 64 64 63 61 61 62 62 62 63 63 61 59 55 52 51 52 54 55 56 56 54 51 50 49 49 49 48 48 47 49 51 52 51 49 49
48 47 45 46 47 48 49 50 49 47 46 46 46 47 46 45 45 44 44 45 45 46 47 49 50 52 53 55 56 57 58 60 62 64 64 63 62 61 60 60 60 61 62 63 64 63 63 63 63 63 62 64 64 62 61 63 63 62 62 63 62 60 57 54 52 53 54 54 55 55 53 51 49 49 47 48 49 48 47 48 49 49 48 48 47
53 52 50 47 44 44 48 50 50 49 48 48 48 49 48 48 47 47 47 48 47 48 49 51 52 54 56 57 59 61 63 65 68 69 68 66 64 63 62 62 61 62 63 64 65 65 65 64 64 63 62 63 65 64 63 63 64 64 62 62 62 61 60 57 54 53 52 52 52 52 51 48 46 46 45 46 47 47 46 44 45 46 46 46 47
54 53 52 48 43 42 45 50 50 50 50 49 49 50 50 49 49 50 50 50 49 50 51 53 55 56 58 60 62 64 67 70 72 71 69 67 65 64 63 63 63 63 63 64 65 66 66 66 65 64 63 63 65 66 65 64 64 64 64 63 62 62 61 59 55 52 50 50 50 50 49 48 45 44 44 44 44 45 43 42 43 44 44 46 47
50 49 49 48 46 46 48 50 50 50 50 49 50 50 51 51 52 52 52 51 51 52 53 55 57 59 60 62 64 67 71 72 72 70 68 67 66 65 64 64 64 64 63 64 65 66 67 67 66 65 65 64 64 65 66 66 65 65 65 65 63 62 60 58 56 52 49 49 50 50 50 49 46 44 43 43 43 44 45 45 45 45 45 45 47
41 42 44 45 46 47 47 48 49 49 49 49 50 51 52 53 54 54 53 53 53 54 55 58 60 61 62 65 68 71 72 71 68 66 65 65 64 63 63 64 64 63 63 64 65 66 67 68 67 66 66 64 64 64 65 66 66 66 67 65 63 62 61 58 55 52 50 49 50 50 49 47 45 43 44 44 45 46 47 46 46 46 46 45 46
43 42 41 41 43 43 44 46 47 47 48 49 50 52 53 55 55 54 54 54 54 56 58 59 61 63 65 68 70 71 69 66 65 63 62 62 62 62 63 64 64 63 63 64 65 66 67 67 67 67 66 65 64 64 64 64 66 67 67 65 63 62 61 58 55 53 51 49 49 49 48 46 44 44 44 44 45 45 45 45 45 45 45 45 46
Wind_Direction
279 275 268 262 257 252 247 243 240 238 238 238 236 231 225 222 224 228 231 231 229 226 225 226 226 223 219 220 225 225 225 227 228 230 232 235 238 240 241 242 242 242 242 242 240 240 242 245 246 247 248 247 245 246 248 251 254 259 265 269 274 279 286 294 299 305 313 318 324 334 345 352 357 358 357 356 353 351 349 350 351 352 353 355 359
276 274 270 263 255 250 249 248 246 243 239 238 237 234 229 225 225 228 230 233 233 230 227 226 227 226 222 218 221 226 226 225 227 229 231 233 236 238 240 242 243 243 242 242 241 240 241 242 244 245 247 248 245 245 247 249 253 256 261 265 270 275 280 285 291 298 305 310 316 326 338 346 352 354 354 352 349 344 342 341 343 345 347 349 352
272 272 271 267 258 253 253 253 252 248 243 240 238 236 233 230 227 228 231 233 235 234 231 229 228 228 225 220 219 223 227 227 227 228 229 231 234 235 237 239 241 242 242 241 240 239 239 240 240 241 243 245 244 244 246 247 251 254 257 262 266 271 275 278 285 292 298 302 307 317 330 339 345 349 350 349 346 342 338 336 337 339 341 344 347
271 271 270 267 262 258 256 255 256 255 250 243 240 238 237 234 230 229 231 233 234 235 233 231 230 229 227 224 221 222 227 229 229 230 230 231 233 234 235 237 238 240 240 240 239 237 236 237 236 237 238 239 240 242 243 246 249 252 255 259 263 266 270 273 278 284 290 294 298 307 320 330 336 342 345 346 344 341 338 336 334 335 337 339 342
269 270 269 267 264 260 257 257 257 258 254 246 241 239 239 237 233 230 230 232 233 234 233 232 231 231 229 226 223 223 225 229 232 233 232 232 233 235 234 236 239 239 240 238 237 236 235 235 234 234 235 236 237 240 242 245 248 250 253 258 261 263 265 268 272 277 282 286 290 297 309 319 327 334 339 341 342 341 340 338 336 335 334 335 337
265 267 266 265 263 261 258 256 255 255 254 248 242 241 240 239 236 232 230 231 232 233 233 232 231 232 231 228 225 225 225 228 232 235 236 234 234 236 236 237 238 240 240 240 238 237 236 237 236 235 235 237 238 240 242 245 248 249 252 256 259 261 264 266 269 273 277 281 285 290 300 308 317 324 331 335 337 339 340 339 338 336 334 334 335
262 263 262 261 259 259 257 254 252 251 249 248 244 242 241 239 237 235 233 232 232 232 233 232 231 232 233 231 227 226 226 227 230 234 237 238 236 237 239 239 239 240 240 241 240 240 240 241 242 242 240 240 241 242 244 245 248 250 253 256 259 262 264 266 268 271 275 278 281 286 294 300 307 314 321 326 329 333 336 338 338 337 335 335 336
261 259 259 261 258 255 254 253 250 247 244 244 242 240 239 238 236 237 237 236 234 233 232 232 231 231 232 232 229 227 226 226 227 230 235 238 239 238 239 241 241 241 241 241 240 240 241 243 245 247 247 246 246 246 247 248 250 252 255 257 260 263 265 267 269 271 273 275 279 284 289 294 299 305 312 317 320 325 329 332 334 335 335 335 336
261 257 257 260 259 255 251 250 248 246 244 242 238 235 235 236 233 234 237 236 235 234 232 232 232 232 231 232 232 229 228 227 227 228 231 235 238 239 239 240 242 244 244 243 242 241 241 243 245 247 249 249 249 249 250 251 253 255 257 258 260 263 265 268 270 271 271 273 276 280 285 289 293 299 304 309 312 317 322 325 329 331 333 334 335
260 256 255 257 259 257 252 250 249 247 247 244 238 232 233 236 232 232 236 235 235 234 233 233 233 231 231 232 233 232 230 229 229 228 230 232 235 238 239 239 241 243 245 245 246 245 244 244 245 246 248 249 249 249 250 252 254 257 258 260 261 263 266 269 270 271 271 272 274 277 281 285 289 294 299 303 306 310 314 319 322 326 329 331 331
260 256 253 252 253 253 250 250 249 248 249 248 243 237 234 237 235 234 237 237 238 238 235 235 234 231 229 230 232 233 232 230 229 229 230 231 233 236 238 239 240 241 243 245 246 247 246 247 247 248 249 249 250 251 251 251 253 255 258 260 262 264 266 269 270 270 271 271 272 274 277 281 285 290 294 298 301 304 308 312 316 319 322 325 326
261 258 254 250 248 247 245 245 246 247 249 247 247 245 240 237 237 237 238 239 242 245 241 236 234 231 228 228 231 232 232 231 230 230 230 231 233 235 237 239 240 240 241 243 244 246 247 247 248 249 251 251 252 252 253 253 253 254 255 258 260 263 265 266 267 268 270 271 271 272 274 277 281 286 291 294 296 299 302 305 309 312 315 318 320
259 257 253 249 246 244 240 239 241 243 245 245 244 247 247 243 241 239 236 232 234 240 240 234 232 231 229 229 230 232 233 232 231 231 230 231 232 234 236 238 240 241 241 241 243 244 245 246 247 248 250 251 253 254 255 256 256 256 256 256 258 260 263 264 266 267 268 270 270 271 272 274 278 282 287 289 291 294 297 300 303 306 309 311 313
258 256 253 249 246 243 240 237 237 238 240 241 240 242 247 248 246 244 239 230 226 230 232 229 226 227 230 231 230 232 234 234 233 233 232 231 231 232 235 237 239 240 242 242 243 244 245 245 245 246 247 249 251 254 256 258 260 260 260 259 258 259 260 262 265 266 267 269 271 271 271 273 275 278 282 285 287 290 292 295 298 301 304 306 307
258 256 254 251 247 244 242 239 237 236 236 237 238 237 241 246 247 246 243 237 234 231 228 226 222 223 229 232 231 232 235 236 235 234 234 233 232 233 234 236 238 239 242 244 245 245 245 245 245 245 247 248 250 252 255 258 260 262 262 262 260 259 260 262 264 266 267 268 271 273 272 272 273 276 279 282 284 286 289 292 294 297 299 301 302
257 256 254 252 250 246 243 242 239 237 236 236 237 235 236 242 246 246 243 240 240 237 231 228 224 224 228 231 233 235 236 238 237 236 235 234 234 235 235 236 238 239 241 243 246 247 247 247 247 247 247 248 250 252 254 256 258 260 261 262 262 261 261 262 263 265 267 268 270 273 274 274 274 275 277 280 282 284 286 289 291 293 296 298 299
257 255 254 253 252 250 246 243 242 240 239 237 237 235 233 234 238 243 244 242 243 242 238 234 232 233 233 234 236 237 238 240 240 237 236 235 235 236 237 238 239 240 241 243 245 248 249 249 249 249 248 248 249 251 252 254 256 258 259 261 262 262 262 262 264 266 267 269 270 271 274 275 275 276 277 279 281 283 286 288 290 292 293 295 296
255 254 254 254 253 252 249 246 244 243 243 241 240 239 237 233 234 240 244 244 244 244 243 241 239 239 237 237 238 239 240 243 243 239 237 238 238 239 240 241 241 242 242 243 245 247 249 250 250 250 250 250 251 251 253 254 255 256 258 259 260 261 262 263 264 265 267 268 269 270 271 273 276 277 277 279 281 283 285 287 289 291 292 293 294
254 253 253 253 253 253 251 249 247 246 246 246 244 243 242 239 237 239 242 244 244 244 245 244 243 240 238 237 237 239 240 243 244 241 239 241 243 244 245 244 243 243 243 244 245 247 249 250 251 251 251 251 252 253 253 255 256 257 258 259 259 260 261 263 263 265 266 267 268 269 268 269 272 276 278 279 280 282 284 286 288 290 291 292 292
255 254 252 252 253 253 252 251 249 248 248 249 248 246 245 244 242 241 242 244 245 246 246 246 246 244 241 240 239 239 238 239 241 241 241 243 245 248 250 248 246 244 243 243 244 247 249 250 251 251 251 251 252 252 253 255 256 258 259 260 260 260 261 262 263 264 265 266 266 267 267 266 267 270 275 277 278 280 281 284 286 287 289 290 290
252 252 252 252 252 253 252 252 250 249 249 250 250 249 248 247 246 245 244 245 245 247 247 247 248 247 245 244 242 241 240 239 238 239 240 241 243 248 252 252 249 246 245 244 244 246 248 250 251 252 251 251 252 252 253 254 255 257 259 260 261 261 262 262 263 264 264 265 266 266 268 267 265 266 269 273 276 277 279 281 283 285 286 287 288
251 250 250 250 251 252 253 253 252 250 248 249 250 251 250 249 249 249 248 248 247 247 248 249 249 249 248 248 246 245 245 244 242 242 243 242 243 246 250 253 252 249 248 248 248 247 248 249 250 251 252 252 252 252 253 254 255 256 257 259 260 261 261 262 263 264 265 265 266 267 268 269 268 266 266 269 272 275 277 278 280 282 283 284 286
256 253 250 249 248 249 250 251 252 251 250 249 248 249 250 249 247 248 248 249 248 248 248 248 249 250 250 250 250 250 250 250 250 248 247 247 246 246 248 252 253 250 249 251 252 251 250 249 249 249 251 252 252 253 253 254 255 255 256 258 259 260 261 262 263 264 265 266 267 268 268 270 270 269 266 266 268 272 274 276 277 279 280 282 283
264 261 258 254 251 249 249 249 249 250 251 251 250 249 250 249 248 246 246 247 248 248 247 246 248 250 250 251 252 252 252 253 254 254 252 251 249 247 247 250 252 250 248 250 253 254 253 252 251 249 249 250 251 252 253 254 255 255 256 257 258 260 261 262 263 265 266 267 268 269 270 270 271 271 269 267 267 269 272 273 275 277 279 280 282
268 268 267 264 260 256 253 252 251 251 251 251 252 252 252 252 252 250 249 249 250 250 251 250 249 250 251 252 253 254 254 254 255 257 257 256 254 252 249 250 251 249 247 249 252 254 256 255 253 250 249 250 251 253 254 255 255 255 256 257 258 259 260 261 262 264 266 267 268 269 271 271 272 273 273 271 269 271 272 273 274 275 277 279 280
263 265 267 268 267 265 263 260 258 257 256 255 254 254 255 255 255 254 254 253 252 253 254 255 255 254 254 254 254 255 256 257 257 258 260 260 259 258 255 253 253 252 249 250 251 253 256 257 253 250 249 250 252 254 256 257 256 257 257 258 258 258 259 259 261 262 264 266 267 268 269 271 272 273 274 274 274 274 274 273 274 275 275 277 278
260 260 261 263 265 266 267 267 266 264 262 261 259 258 257 257 257 257 257 257 257 256 255 255 256 257 257 256 256 256 256 258 258 259 260 261 262 262 260 258 258 257 255 254 254 255 255 256 254 250 249 250 251 253 254 256 257 258 259 259 259 259 259 259 259 261 262 264 266 267 268 269 271 272 273 273 274 275 274 273 273 273 274 275 276
260 260 259 259 259 260 261 262 263 264 264 263 263 262 261 260 259 259 258 258 259 259 259 258 257 257 258 258 258 257 257 258 259 260 260 261 262 263 263 262 261 261 260 259 258 257 255 254 253 251 250 250 251 252 253 254 256 257 259 260 261 261 262 261 260 259 261 265 267 268 268 268 270 271 271 271 272 272 271 271 271 272 273 273 274
260 261 260 259 259 258 258 258 258 259 260 261 262 262 262 262 262 262 261 261 260 260 261 261 260 259 259 259 259 260 259 259 260 261 262 263 264 265 266 266 265 265 264 263 261 259 256 254 252 251 251 251 251 252 253 254 256 257 258 258 260 261 262 263 261 261 263 268 270 269 268 268 271 271 270 270 270 269 268 268 269 270 272 273 273
257 258 259 259 259 259 259 260 260 261 261 261 262 262 262 262 262 262 262 262 262 262 262 263 263 263 263 263 262 262 262 262 262 262 263 264 265 267 267 268 268 268 268 266 264 262 260 258 255 252 250 251 252 252 252 253 255 256 257 257 258 259 260 262 262 263 266 269 270 268 267 267 270 270 270 269 268 267 266 266 268 269 270 271 272
253 254 255 256 257 258 259 259 260 261 262 263 263 264 264 263 263 263 262 262 261 261 262 262 263 264 265 266 266 266 265 265 265 264 264 264 265 266 267 268 269 269 269 268 265 263 262 261 260 256 253 252 253 253 253 252 253 254 255 256 257 258 259 261 263 263 264 266 267 266 264 263 265 269 271 271 270 268 267 268 269 270 270 270 271
251 251 253 254 255 256 257 258 259 260 262 264 265 266 266 266 266 266 265 264 263 262 261 261 261 262 263 265 266 267 267 267 267 267 266 266 266 266 266 267 268 268 268 268 266 264 263 263 261 260 259 257 256 256 255 254 254 254 255 255 256 256 258 260 261 261 261 263 264 264 263 261 261 264 269 271 272 272 271 272 273 273 272 271 270
253 252 252 253 254 255 256 257 259 260 262 263 265 266 267 268 268 268 268 267 266 265 264 263 262 261 262 262 263 264 265 266 268 268 268 268 267 267 266 267 268 268 268 267 267 265 263 264 263 262 261 261 260 259 259 258 257 257 256 255 255 256 256 256 257 259 261 264 266 265 263 262 262 263 266 268 270 271 272 274 274 273 273 272 271
255 254 254 254 255 255 256 257 259 260 261 262 263 264 266 267 268 268 269 269 269 269 268 266 265 263 262 262 262 262 263 263 265 266 267 267 267 267 267 266 266 267 267 267 267 266 264 264 264 264 263 263 262 261 260 260 259 258 258 257 256 256 256 255 255 256 257 259 262 263 262 261 264 266 266 267 268 269 270 271 272 271 270 269 270
256 255 254 254 255 255 255 256 258 259 261 262 263 264 265 267 268 269 269 270 270 271 271 270 269 267 266 264 263 262 262 262 263 263 264 265 266 267 267 267 266 266 267 266 266 266 265 264 265 265 264 264 264 263 261 260 259 259 259 258 258 257 256 256 255 252 251 250 252 257 260 261 263 265 266 267 267 267 267 268 270 271 270 267 266
258 256 255 255 255 255 256 257 259 261 263 264 265 266 267 268 269 271 271 272 273 272 272 272 272 272 271 269 268 265 264 263 263 263 263 263 263 264 265 266 267 266 266 266 266 266 265 265 265 266 265 265 265 264 263 262 262 261 260 259 259 257 255 256 255 254 252 251 251 255 260 261 260 261 263 265 266 267 267 268 271 275 273 269 266
263 261 257 256 257 259 261 263 265 267 267 268 268 268 269 270 271 272 273 274 275 276 276 276 276 275 274 274 273 271 268 267 266 265 264 263 263 263 263 264 265 266 266 266 266 266 265 265 265 265 266 266 266 265 265 264 264 263 261 260 259 258 256 255 255 255 255 253 253 255 257 258 258 258 259 261 263 265 268 271 275 278 277 275 273
266 264 259 258 261 263 265 267 268 270 271 270 270 270 271 272 273 274 275 276 278 280 280 281 281 280 279 278 278 276 274 272 270 269 267 265 264 263 263 263 263 264 265 266 266 266 266 265 265 265 265 266 266 266 266 266 265 265 264 262 260 259 257 255 254 253 253 253 253 254 255 256 256 256 257 258 259 260 262 267 272 274 275 276 277
268 266 262 261 264 265 266 268 270 271 271 270 271 272 272 274 276 278 280 281 283 285 285 286 285 285 285 284 284 282 280 277 275 274 271 268 266 264 264 263 263 262 263 264 265 265 266 266 265 265 265 265 265 266 266 266 266 265 265 263 261 259 257 255 254 253 252 252 253 254 255 255 255 256 257 257 257 257 257 261 266 268 269 271 273
269 268 266 265 266 267 266 268 270 270 270 270 272 273 273 275 278 280 284 287 289 289 289 289 289 288 288 288 288 288 286 283 281 278 276 273 270 267 265 264 263 262 262 262 263 264 264 265 265 265 264 264 264 265 265 266 266 266 265 264 262 260 258 257 256 255 253 253 254 255 255 255 255 256 257 257 257 257 255 255 259 261 263 266 269
269 269 269 268 268 268 267 268 269 270 269 269 271 272 273 275 277 282 287 290 291 290 289 289 288 288 288 288 288 289 289 288 286 284 281 278 275 272 269 267 264 262 261 261 261 262 263 263 264 264 264 264 264 264 264 265 265 265 265 264 262 260 258 257 256 255 254 254 254 255 256 256 256 255 256 257 257 257 254 253 254 255 255 257 259
270 271 271 270 269 269 268 268 269 270 270 270 271 272 272 273 277 282 286 288 288 288 288 288 288 288 288 288 288 288 288 288 288 287 285 282 278 275 273 271 268 265 263 261 260 260 261 261 262 263 263 263 264 263 263 264 264 264 264 263 262 260 259 258 257 256 255 255 255 255 255 255 255 255 256 256 256 256 254 251 251 252 253 253 253
269 271 272 272 271 270 269 268 269 271 271 271 271 271 271 273 276 280 282 284 285 286 288 289 289 289 288 288 288 288 288 288 288 288 287 284 281 277 274 273 271 268 266 263 261 260 259 260 260 261 262 262 263 263 262 262 262 262 262 262 262 261 260 260 259 257 256 255 255 255 255 255 255 255 255 256 256 255 252 249 248 249 251 252 253
266 269 271 273 272 270 270 268 268 270 271 270 270 270 271 272 274 277 280 281 283 285 287 290 290 289 288 287 287 287 288 289 289 288 287 285 282 278 275 273 271 270 268 266 263 261 260 259 258 259 260 261 261 262 261 261 260 260 261 261 260 260 259 258 257 257 256 255 255 255 255 256 256 255 255 255 255 254 251 249 247 246 247 250 253
267 269 272 275 272 268 269 268 266 268 270 269 269 269 270 271 273 276 278 279 281 284 287 289 289 288 288 288 288 289 289 290 291 290 288 285 281 278 276 273 271 270 268 267 265 263 261 259 257 257 258 259 259 260 260 260 259 259 259 259 260 259 259 257 256 255 255 256 256 255 255 256 257 256 255 255 254 253 251 249 248 247 247 249 253
268 269 274 279 274 266 266 268 267 267 268 267 267 268 270 271 273 275 276 278 280 283 286 287 288 288 288 288 290 291 291 292 292 291 289 284 279 276 274 273 271 270 268 267 266 264 262 260 257 256 256 257 257 257 258 259 258 258 258 258 258 259 258 256 255 254 255 255 256 257 256 256 258 258 255 254 254 254 253 251 251 251 249 249 251
270 270 273 280 277 266 265 268 267 265 266 266 266 268 270 272 273 275 275 276 279 282 285 287 288 288 289 290 291 292 292 293 292 291 288 283 278 274 272 271 271 270 268 267 265 264 263 261 259 256 255 255 255 255 255 256 257 257 257 256 256 257 257 256 254 254 254 254 255 256 256 255 256 256 253 252 252 254 255 255 255 253 250 248 248
270 269 270 275 274 268 270 272 267 264 264 265 266 268 271 272 274 274 275 276 278 281 285 287 289 289 290 291 291 292 292 291 290 288 285 281 277 274 271 270 269 269 268 266 265 264 262 261 260 257 255 253 253 253 253 254 255 256 256 255 255 254 255 255 254 254 254 254 254 254 253 253 252 252 250 249 250 251 253 254 255 254 251 248 247
267 267 267 269 269 271 275 274 266 263 265 265 266 269 271 273 273 274 275 276 278 281 285 288 289 290 291 291 291 290 290 289 286 284 281 278 276 273 271 270 269 268 267 265 264 263 262 261 259 258 256 253 252 252 252 252 252 253 254 254 254 254 253 253 253 253 252 252 252 252 251 251 250 249 247 246 247 248 250 253 254 254 251 249 248
265 265 265 266 268 272 274 270 264 263 265 266 268 270 272 272 274 275 277 278 280 283 287 289 290 291 291 290 290 289 288 286 282 279 277 275 274 273 271 270 268 267 266 264 263 262 261 260 259 258 256 254 252 251 250 250 251 251 252 252 253 253 253 252 252 251 250 250 251 251 251 250 249 247 245 245 245 246 248 250 251 251 250 248 247
265 266 266 267 269 271 271 267 264 265 266 267 269 271 272 274 275 277 279 280 282 286 289 290 291 291 291 290 289 288 285 282 279 277 275 273 272 271 271 270 269 268 266 264 263 261 260 259 259 258 257 256 253 251 250 249 249 250 250 251 251 252 253 252 250 250 249 248 249 249 249 249 248 246 244 243 243 244 247 248 247 248 249 248 248
Height
5800 5800 5801 5801 5801 5802 5802 5803 5803 5803 5804 5806 5807 5809 5810 5812 5813 5815 5817 5819 5820 5822 5824 5826 5828 5830 5831 5833 5833 5834 5835 5836 5837 5838 5840 5841 5841 5842 5843 5844 5844 5845 5846 5848 5849 5850 5851 5852 5854 5854 5855 5856 5857 5858 5858 5859 5859 5859 5860 5860 5860 5861 5861 5861 5861 5861 5861 5861 5861 5861 5861 5860 5860 5859 5858 5858 5857 5856 5856 5855 5854 5853 5852 5851 5850
5798 5798 5799 5800 5799 5799 5800 5801 5801 5801 5802 5803 5805 5806 5808 5810 5811 5813 5815 5816 5818 5820 5822 5823 5825 5827 5829 5831 5832 5832 5833 5834 5835 5836 5837 5838 5839 5840 5841 5842 5843 5844 5845 5846 5847 5848 5849 5850 5851 5852 5853 5854 5855 5856 5857 5857 5858 5858 5858 5859 5859 5860 5860 5860 5860 5860 5860 5860 5860 5860 5860 5860 5859 5858 5858 5857 5857 5856 5855 5854 5853 5852 5852 5851 5849
5796 5796 5797 5797 5797 5798 5799 5799 5799 5799 5800 5801 5803 5804 5806 5807 5809 5811 5812 5814 5816 5818 5819 5821 5823 5824 5827 5829 5830 5831 5831 5832 5833 5833 5835 5836 5837 5838 5839 5840 5841 5842 5843 5844 5845 5846 5847 5848 5849 5850 5851 5852 5853 5854 5855 5855 5856 5857 5857 5857 5858 5858 5859 5859 5859 5859 5859 5859 5859 5859 5859 5859 5858 5858 5857 5856 5856 5855 5854 5853 5852 5852 5851 5850 5849
5795 5795 5795 5794 5795 5796 5797 5796 5797 5797 5798 5799 5801 5802 5803 5804 5806 5808 5810 5811 5813 5815 5817 5819 5820 5822 5824 5827 5828 5829 5829 5830 5831 5831 5832 5834 5835 5836 5837 5837 5838 5839 5840 5841 5842 5843 5844 5845 5847 5848 5849 5849 5850 5851 5852 5854 5855 5855 5856 5856 5856 5857 5857 5857 5858 5858 5858 5858 5858 5858 5858 5858 5857 5857 5856 5855 5855 5854 5853 5852 5851 5850 5849 5849 5848
5792 5792 5793 5793 5793 5794 5794 5794 5795 5795 5796 5797 5798 5799 5801 5802 5803 5805 5807 5808 5810 5812 5813 5815 5817 5819 5821 5824 5826 5827 5828 5828 5829 5829 5830 5832 5833 5834 5835 5836 5836 5837 5838 5839 5840 5841 5842 5843 5844 5845 5846 5847 5848 5849 5851 5852 5853 5854 5854 5854 5855 5855 5855 5856 5856 5856 5856 5857 5857 5857 5857 5856 5856 5856 5855 5854 5854 5853 5852 5851 5850 5849 5848 5848 5847
5790 5790 5791 5791 5791 5791 5792 5792 5793 5793 5794 5794 5795 5797 5798 5799 5801 5802 5803 5805 5807 5809 5810 5812 5814 5816 5818 5820 5823 5824 5826 5827 5827 5828 5828 5830 5831 5832 5833 5834 5835 5835 5836 5837 5838 5839 5840 5841 5842 5844 5845 5846 5847 5848 5849 5850 5851 5852 5852 5853 5853 5853 5854 5854 5854 5855 5855 5855 5855 5856 5856 5855 5855 5854 5854 5853 5853 5852 5851 5850 5849 5848 5847 5846 5846
5788 5788 5788 5788 5789 5789 5789 5790 5790 5791 5791 5791 5792 5794 5795 5796 5798 5799 5800 5802 5804 5806 5807 5809 5811 5813 5815 5817 5819 5821 5823 5824 5825 5826 5826 5827 5829 5830 5831 5832 5833 5834 5834 5835 5836 5837 5838 5839 5841 5842 5844 5845 5845 5846 5847 5848 5849 5850 5850 5851 5851 5851 5852 5852 5853 5853 5853 5853 5854 5854 5854 5854 5853 5853 5853 5852 5852 5851 5850 5849 5848 5847 5846 5845 5844
5786 5786 5785 5785 5786 5787 5787 5787 5787 5787 5788 5788 5789 5791 5792 5793 5795 5796 5797 5799 5801 5802 5804 5806 5808 5810 5812 5813 5815 5817 5819 5821 5822 5824 5824 5825 5827 5828 5829 5830 5831 5832 5833 5833 5834 5835 5836 5837 5839 5840 5842 5843 5844 5845 5845 5846 5847 5848 5848 5849 5849 5850 5850 5851 5851 5852 5852 5852 5852 5852 5852 5852 5852 5852 5851 5851 5850 5850 5849 5848 5847 5846 5845 5844 5843
5783 5783 5783 5783 5783 5784 5785 5784 5785 5785 5785 5786 5787 5788 5789 5790 5792 5793 5793 5794 5796 5798 5800 5803 5805 5806 5808 5810 5812 5814 5816 5818 5819 5821 5822 5823 5824 5825 5827 5828 5829 5830 5831 5832 5832 5833 5834 5835 5836 5838 5839 5841 5842 5843 5844 5844 5845 5846 5846 5847 5847 5847 5848 5849 5849 5850 5850 5850 5850 5851 5851 5851 5850 5850 5850 5849 5849 5848 5847 5846 5845 5844 5843 5843 5842
5780 5781 5781 5781 5781 5782 5782 5782 5783 5784 5783 5784 5784 5786 5787 5787 5789 5790 5790 5791 5792 5794 5796 5799 5801 5803 5805 5807 5809 5811 5813 5815 5817 5818 5819 5820 5821 5822 5823 5825 5826 5828 5829 5830 5830 5831 5832 5833 5834 5835 5836 5838 5839 5840 5841 5842 5843 5843 5844 5844 5845 5845 5846 5846 5847 5848 5848 5848 5848 5849 5849 5849 5849 5848 5848 5848 5847 5847 5846 5845 5844 5843 5842 5841 5841
5776 5778 5778 5778 5778 5779 5780 5781 5781 5781 5782 5782 5783 5783 5784 5784 5785 5787 5787 5788 5789 5791 5794 5795 5797 5799 5801 5803 5805 5807 5809 5812 5813 5815 5816 5817 5818 5819 5821 5822 5823 5825 5826 5827 5828 5829 5829 5830 5831 5832 5834 5835 5836 5837 5838 5839 5840 5841 5841 5842 5842 5843 5843 5844 5844 5845 5846 5846 5846 5846 5846 5846 5846 5846 5846 5846 5846 5845 5844 5843 5842 5841 5841 5840 5839
5773 5774 5775 5775 5776 5776 5778 5779 5779 5779 5779 5780 5781 5781 5782 5782 5783 5784 5785 5786 5787 5788 5790 5792 5792 5794 5796 5799 5801 5803 5805 5807 5810 5812 5813 5814 5815 5817 5818 5819 5820 5821 5823 5824 5825 5826 5827 5828 5829 5829 5831 5832 5833 5834 5835 5836 5837 5838 5839 5839 5839 5840 5841 5841 5841 5842 5843 5843 5844 5844 5844 5844 5844 5844 5844 5844 5843 5843 5842 5841 5840 5840 5839 5838 5837
5769 5770 5771 5772 5773 5773 5775 5776 5776 5776 5776 5777 5778 5779 5780 5781 5781 5782 5782 5784 5785 5785 5787 5788 5788 5790 5793 5795 5797 5799 5801 5804 5806 5808 5809 5811 5812 5813 5815 5816 5817 5818 5819 5821 5822 5823 5824 5825 5826 5826 5827 5828 5829 5830 5832 5833 5833 5834 5835 5836 5837 5837 5838 5838 5838 5839 5840 5840 5840 5841 5842 5842 5842 5842 5841 5841 5841 5841 5840 5839 5838 5838 5837 5836 5836
5766 5767 5768 5768 5769 5770 5771 5773 5774 5774 5774 5774 5775 5777 5778 5778 5779 5780 5781 5782 5782 5783 5784 5784 5784 5786 5789 5791 5794 5796 5798 5800 5802 5804 5805 5807 5808 5810 5811 5812 5813 5814 5816 5817 5818 5819 5820 5821 5822 5823 5824 5825 5826 5827 5828 5829 5830 5831 5832 5833 5834 5834 5835 5835 5835 5836 5837 5837 5837 5838 5839 5839 5839 5839 5839 5839 5839 5839 5838 5837 5836 5836 5835 5834 5834
5763 5764 5764 5765 5766 5767 5768 5769 5771 5771 5772 5773 5774 5775 5776 5777 5777 5778 5779 5780 5780 5781 5781 5782 5783 5784 5785 5788 5791 5793 5795 5796 5798 5799 5800 5803 5805 5806 5807 5809 5810 5811 5813 5814 5814 5815 5817 5818 5819 5820 5821 5822 5823 5824 5825 5826 5827 5827 5828 5829 5830 5831 5831 5832 5832 5832 5833 5834 5834 5835 5836 5837 5837 5837 5836 5836 5836 5836 5836 5835 5834 5833 5833 5832 5831
5760 5760 5761 5762 5762 5764 5765 5766 5768 5768 5769 5770 5771 5773 5773 5775 5776 5775 5776 5777 5778 5779 5780 5781 5782 5782 5783 5786 5787 5789 5791 5793 5794 5795 5796 5799 5801 5802 5804 5805 5806 5808 5809 5810 5811 5812 5813 5814 5815 5816 5817 5818 5819 5821 5822 5822 5823 5824 5825 5826 5827 5827 5828 5828 5829 5829 5830 5831 5831 5832 5832 5833 5834 5834 5834 5834 5833 5833 5833 5833 5832 5831 5830 5830 5829
5757 5758 5758 5759 5759 5761 5762 5763 5764 5765 5766 5767 5768 5769 5771 5772 5773 5773 5773 5774 5775 5776 5778 5779 5780 5780 5782 5784 5785 5786 5788 5789 5790 5791 5792 5795 5797 5798 5800 5801 5803 5804 5805 5807 5807 5808 5809 5810 5811 5812 5813 5815 5816 5817 5818 5818 5819 5820 5821 5821 5822 5823 5824 5825 5825 5825 5826 5827 5828 5829 5829 5830 5830 5831 5831 5831 5831 5831 5830 5830 5829 5829 5828 5827 5827
5755 5755 5756 5756 5757 5758 5759 5761 5762 5762 5763 5764 5765 5766 5767 5769 5770 5770 5771 5772 5773 5774 5775 5776 5777 5778 5780 5781 5782 5784 5785 5786 5786 5787 5789 5791 5793 5794 5796 5797 5799 5800 5802 5803 5804 5805 5805 5806 5808 5809 5809 5810 5811 5812 5813 5814 5815 5816 5816 5817 5818 5819 5820 5821 5822 5822 5823 5824 5825 5826 5827 5827 5826 5827 5828 5828 5827 5827 5827 5827 5827 5826 5825 5825 5824
5753 5753 5754 5754 5755 5755 5756 5758 5759 5760 5760 5761 5762 5763 5764 5766 5767 5767 5768 5769 5770 5771 5772 5773 5773 5775 5777 5778 5780 5781 5782 5783 5783 5784 5785 5787 5789 5790 5791 5793 5794 5796 5797 5798 5799 5801 5802 5803 5804 5805 5805 5806 5807 5808 5809 5810 5810 5811 5812 5813 5814 5815 5816 5817 5818 5818 5819 5820 5821 5822 5823 5824 5824 5823 5824 5824 5824 5824 5824 5824 5824 5823 5822 5822 5821
5750 5751 5751 5752 5752 5753 5754 5755 5756 5757 5758 5758 5759 5760 5761 5762 5763 5764 5765 5766 5767 5768 5769 5770 5770 5771 5773 5775 5776 5778 5779 5780 5781 5781 5782 5784 5785 5786 5787 5787 5789 5791 5793 5794 5795 5796 5797 5798 5799 5800 5801 5802 5803 5804 5805 5806 5806 5807 5808 5808 5809 5811 5812 5813 5814 5814 5815 5816 5817 5817 5818 5820 5820 5820 5820 5820 5820 5820 5821 5820 5820 5820 5819 5819 5818
5748 5749 5749 5750 5750 5751 5751 5752 5753 5754 5755 5755 5756 5757 5758 5759 5760 5761 5762 5763 5764 5765 5766 5767 5767 5768 5769 5770 5772 5773 5775 5776 5777 5778 5779 5781 5781 5782 5782 5782 5784 5786 5788 5789 5791 5792 5793 5794 5795 5796 5797 5798 5799 5799 5800 5801 5802 5803 5803 5804 5805 5806 5807 5808 5809 5810 5811 5812 5813 5813 5813 5814 5816 5817 5817 5816 5816 5816 5817 5817 5816 5816 5815 5815 5815
5745 5746 5747 5748 5748 5749 5749 5750 5751 5752 5752 5753 5754 5754 5755 5757 5758 5758 5759 5760 5761 5762 5763 5764 5765 5765 5766 5766 5767 5768 5770 5771 5772 5774 5775 5776 5777 5778 5778 5778 5779 5781 5782 5784 5786 5788 5789 5790 5791 5792 5793 5794 5794 5795 5796 5797 5797 5798 5798 5799 5800 5801 5803 5804 5805 5806 5806 5807 5808 5809 5809 5809 5810 5812 5813 5813 5812 5812 5812 5813 5812 5812 5811 5811 5811
5742 5743 5744 5745 5746 5746 5747 5747 5748 5749 5750 5750 5751 5752 5753 5754 5755 5756 5756 5757 5758 5759 5760 5761 5762 5762 5763 5763 5763 5764 5765 5766 5767 5768 5769 5771 5773 5774 5775 5774 5775 5776 5778 5778 5780 5782 5784 5786 5787 5788 5789 5789 5790 5791 5792 5792 5793 5793 5794 5794 5795 5796 5798 5799 5800 5801 5802 5803 5803 5804 5805 5805 5805 5806 5808 5809 5809 5808 5808 5809 5808 5808 5807 5807 5807
5738 5739 5740 5742 5743 5743 5744 5745 5745 5746 5747 5748 5748 5749 5750 5751 5752 5753 5754 5755 5755 5756 5757 5758 5759 5759 5760 5760 5760 5761 5762 5762 5763 5763 5764 5766 5767 5769 5771 5770 5770 5773 5774 5773 5774 5777 5779 5781 5783 5784 5785 5785 5785 5786 5787 5788 5788 5789 5789 5790 5791 5792 5793 5794 5795 5797 5797 5798 5799 5799 5800 5800 5800 5801 5803 5805 5805 5805 5805 5804 5804 5804 5803 5803 5803
5734 5735 5736 5737 5739 5740 5741 5742 5742 5743 5744 5745 5745 5746 5747 5748 5749 5750 5751 5752 5752 5753 5754 5755 5756 5756 5756 5757 5757 5758 5758 5759 5759 5759 5760 5761 5762 5764 5767 5766 5766 5768 5769 5769 5770 5772 5774 5776 5777 5778 5779 5780 5781 5781 5782 5783 5784 5784 5784 5785 5786 5787 5788 5789 5791 5792 5793 5793 5794 5795 5795 5795 5796 5796 5797 5799 5801 5801 5801 5800 5800 5800 5799 5799 5799
5732 5732 5733 5734 5734 5735 5737 5738 5739 5740 5741 5742 5742 5743 5743 5744 5745 5746 5747 5748 5749 5750 5751 5751 5752 5753 5753 5754 5754 5754 5755 5755 5756 5756 5756 5757 5758 5760 5762 5762 5762 5764 5765 5765 5766 5767 5769 5771 5771 5772 5773 5775 5776 5777 5777 5778 5779 5779 5779 5781 5782 5782 5783 5785 5786 5787 5788 5789 5789 5790 5791 5791 5791 5792 5792 5794 5796 5797 5797 5796 5796 5796 5795 5795 5795
5729 5730 5731 5731 5732 5732 5733 5734 5735 5736 5737 5738 5739 5739 5740 5741 5741 5742 5743 5744 5745 5746 5747 5748 5749 5749 5750 5750 5751 5751 5752 5752 5752 5753 5753 5754 5754 5755 5756 5757 5758 5759 5760 5761 5761 5762 5765 5766 5764 5765 5768 5770 5771 5772 5773 5773 5774 5775 5775 5776 5778 5778 5778 5780 5781 5782 5783 5784 5785 5786 5786 5786 5787 5787 5787 5788 5791 5793 5792 5792 5792 5792 5791 5791 5790
5726 5727 5728 5729 5729 5730 5730 5731 5732 5732 5733 5734 5735 5736 5736 5737 5738 5738 5739 5740 5741 5742 5743 5744 5745 5745 5746 5747 5747 5748 5748 5749 5749 5749 5750 5750 5750 5751 5751 5752 5753 5754 5754 5756 5757 5758 5760 5761 5760 5761 5763 5764 5766 5767 5768 5769 5769 5770 5771 5772 5773 5773 5774 5774 5776 5777 5778 5779 5780 5780 5781 5781 5782 5783 5783 5783 5786 5787 5788 5788 5788 5788 5787 5787 5786
5723 5724 5724 5725 5726 5727 5728 5728 5729 5730 5730 5731 5731 5732 5733 5734 5734 5735 5736 5736 5737 5737 5738 5739 5740 5741 5742 5742 5743 5743 5744 5745 5745 5745 5746 5746 5746 5746 5746 5747 5748 5748 5749 5751 5752 5753 5755 5755 5756 5757 5758 5758 5760 5761 5762 5764 5765 5765 5765 5767 5768 5769 5769 5769 5770 5771 5773 5774 5774 5775 5775 5776 5777 5777 5777 5778 5779 5781 5782 5783 5783 5783 5783 5783 5782
5720 5721 5721 5722 5722 5723 5724 5725 5725 5726 5726 5727 5728 5728 5729 5730 5730 5731 5732 5733 5734 5734 5734 5735 5735 5736 5737 5737 5738 5738 5739 5740 5740 5740 5741 5741 5741 5741 5741 5742 5742 5743 5744 5745 5747 5749 5750 5750 5751 5753 5753 5752 5753 5755 5757 5758 5759 5759 5760 5762 5763 5764 5763 5763 5764 5766 5768 5768 5768 5769 5770 5771 5772 5772 5772 5772 5773 5775 5776 5777 5778 5778 5778 5778 5778
5717 5718 5718 5718 5719 5719 5720 5721 5721 5722 5722 5723 5723 5724 5725 5726 5726 5727 5728 5729 5730 5730 5731 5731 5732 5732 5732 5732 5732 5733 5734 5734 5735 5735 5735 5736 5736 5736 5736 5736 5737 5737 5738 5739 5742 5745 5746 5745 5746 5747 5747 5747 5748 5749 5751 5753 5753 5754 5755 5757 5758 5758 5758 5759 5760 5762 5762 5762 5762 5763 5765 5766 5767 5767 5767 5768 5768 5769 5770 5771 5772 5773 5773 5773 5773
5714 5714 5714 5714 5715 5715 5716 5717 5717 5718 5718 5719 5719 5719 5720 5721 5722 5722 5723 5724 5724 5725 5726 5727 5728 5728 5728 5728 5728 5728 5728 5729 5729 5729 5729 5730 5730 5731 5731 5731 5731 5731 5732 5733 5735 5739 5741 5740 5740 5741 5741 5741 5742 5743 5744 5746 5747 5748 5749 5751 5752 5753 5753 5754 5756 5756 5757 5757 5757 5758 5759 5761 5763 5763 5764 5764 5764 5765 5765 5766 5767 5767 5768 5768 5768
5709 5710 5710 5711 5711 5712 5712 5712 5713 5713 5714 5714 5714 5715 5715 5716 5716 5717 5718 5718 5719 5719 5720 5721 5722 5723 5723 5723 5723 5723 5723 5724 5723 5723 5724 5724 5724 5725 5725 5725 5726 5725 5726 5726 5728 5732 5736 5735 5734 5735 5736 5735 5736 5738 5738 5740 5741 5742 5743 5744 5746 5747 5748 5749 5750 5751 5752 5753 5754 5753 5753 5755 5757 5758 5759 5760 5760 5760 5760 5761 5762 5762 5763 5763 5763
5705 5705 5706 5707 5707 5708 5708 5708 5709 5709 5709 5710 5710 5710 5711 5711 5712 5712 5712 5713 5713 5713 5714 5715 5716 5716 5717 5717 5717 5718 5718 5718 5718 5718 5718 5718 5718 5719 5719 5719 5720 5720 5719 5720 5721 5724 5728 5730 5729 5729 5730 5730 5731 5732 5733 5734 5734 5735 5736 5738 5740 5741 5742 5743 5745 5747 5747 5747 5748 5747 5747 5750 5752 5752 5754 5754 5755 5755 5755 5756 5756 5757 5758 5758 5758
5700 5701 5701 5702 5703 5703 5704 5704 5704 5704 5704 5705 5705 5705 5706 5706 5707 5707 5707 5708 5708 5708 5708 5708 5709 5709 5710 5711 5711 5711 5712 5712 5712 5712 5712 5712 5713 5713 5713 5713 5714 5714 5713 5713 5715 5716 5720 5723 5723 5723 5724 5724 5725 5726 5726 5727 5728 5729 5730 5732 5734 5735 5735 5736 5738 5740 5739 5740 5742 5741 5742 5745 5746 5746 5747 5748 5749 5749 5749 5750 5751 5751 5752 5752 5752
5695 5696 5696 5697 5698 5698 5699 5699 5699 5700 5700 5700 5700 5700 5701 5701 5701 5702 5702 5702 5702 5703 5703 5703 5703 5703 5703 5704 5704 5704 5705 5706 5706 5706 5706 5706 5706 5707 5707 5706 5706 5707 5707 5707 5708 5709 5711 5715 5717 5717 5717 5718 5718 5719 5719 5720 5721 5723 5724 5725 5727 5728 5729 5729 5730 5732 5733 5735 5736 5735 5736 5739 5741 5741 5742 5742 5743 5744 5744 5744 5745 5745 5745 5746 5746
5691 5691 5691 5692 5693 5693 5694 5694 5694 5695 5695 5695 5695 5695 5695 5696 5696 5696 5696 5696 5696 5697 5697 5697 5697 5697 5697 5697 5697 5697 5697 5698 5698 5698 5699 5699 5700 5700 5700 5700 5699 5699 5700 5700 5700 5701 5703 5706 5709 5710 5710 5710 5711 5712 5712 5713 5714 5715 5717 5718 5720 5721 5722 5723 5724 5725 5727 5728 5728 5728 5729 5731 5734 5735 5735 5736 5738 5739 5739 5739 5739 5740 5740 5740 5740
5687 5687 5687 5687 5688 5688 5688 5689 5689 5689 5689 5690 5690 5690 5690 5690 5690 5690 5691 5691 5691 5691 5691 5691 5691 5691 5691 5691 5691 5690 5690 5691 5691 5691 5691 5691 5692 5693 5693 5693 5693 5692 5692 5692 5692 5693 5695 5697 5700 5702 5703 5703 5704 5705 5705 5705 5707 5709 5710 5711 5713 5714 5715 5716 5717 5718 5719 5719 5720 5720 5722 5724 5726 5728 5729 5731 5733 5734 5735 5735 5735 5735 5735 5735 5736
5683 5683 5683 5683 5683 5683 5683 5683 5684 5684 5684 5684 5684 5685 5685 5685 5685 5685 5685 5685 5686 5686 5686 5686 5685 5685 5685 5684 5684 5684 5684 5683 5683 5683 5683 5683 5684 5685 5685 5685 5686 5686 5686 5685 5685 5685 5686 5688 5691 5694 5695 5696 5696 5697 5697 5698 5700 5701 5703 5704 5706 5707 5708 5709 5710 5711 5712 5713 5713 5714 5716 5718 5720 5721 5722 5724 5726 5728 5730 5731 5731 5731 5731 5731 5731
5678 5679 5679 5679 5679 5678 5678 5679 5679 5679 5679 5679 5679 5679 5679 5680 5679 5680 5680 5680 5680 5680 5680 5680 5680 5679 5679 5678 5678 5677 5677 5676 5676 5676 5675 5675 5675 5676 5676 5677 5677 5678 5679 5679 5678 5678 5679 5680 5681 5684 5686 5688 5689 5689 5690 5691 5692 5693 5695 5697 5699 5700 5701 5702 5704 5705 5706 5707 5708 5708 5710 5711 5713 5715 5716 5717 5719 5722 5724 5726 5726 5727 5727 5727 5727
5674 5674 5675 5674 5674 5674 5674 5674 5674 5674 5674 5674 5674 5674 5674 5674 5674 5674 5674 5674 5674 5675 5675 5675 5674 5674 5673 5672 5672 5671 5670 5669 5669 5668 5668 5667 5667 5668 5668 5668 5669 5670 5671 5671 5671 5671 5671 5672 5673 5674 5677 5679 5681 5681 5682 5683 5684 5686 5687 5689 5691 5693 5694 5695 5696 5698 5700 5701 5701 5703 5704 5705 5707 5708 5709 5711 5713 5715 5717 5720 5721 5722 5723 5722 5722
5669 5669 5670 5669 5669 5670 5669 5669 5669 5669 5669 5669 5669 5669 5668 5668 5668 5668 5669 5669 5668 5668 5668 5668 5668 5668 5667 5666 5665 5664 5664 5663 5662 5661 5660 5660 5659 5659 5659 5659 5659 5660 5662 5663 5664 5664 5664 5664 5665 5666 5668 5671 5672 5673 5674 5676 5676 5678 5679 5680 5682 5684 5686 5687 5689 5691 5693 5694 5695 5696 5697 5698 5699 5700 5702 5705 5706 5708 5711 5714 5715 5717 5717 5717 5717
5664 5664 5664 5664 5664 5664 5664 5665 5665 5665 5665 5664 5664 5663 5663 5663 5663 5662 5663 5663 5662 5662 5662 5661 5661 5661 5660 5659 5658 5657 5657 5656 5654 5654 5653 5652 5651 5651 5651 5651 5651 5651 5652 5653 5655 5656 5656 5656 5657 5658 5659 5662 5663 5664 5665 5667 5668 5670 5671 5672 5674 5677 5679 5681 5683 5685 5686 5686 5688 5689 5690 5691 5693 5694 5696 5698 5700 5702 5705 5707 5709 5711 5711 5711 5711
5657 5658 5658 5658 5658 5659 5659 5660 5660 5660 5659 5659 5658 5658 5658 5657 5657 5657 5657 5656 5656 5655 5654 5654 5653 5653 5653 5652 5651 5650 5649 5648 5647 5646 5645 5644 5643 5642 5642 5642 5642 5642 5642 5643 5645 5646 5647 5648 5649 5650 5652 5653 5654 5655 5656 5658 5660 5661 5663 5664 5666 5669 5672 5674 5676 5677 5677 5678 5680 5681 5683 5685 5687 5688 5690 5693 5694 5696 5698 5700 5701 5703 5704 5704 5705
5651 5651 5652 5652 5652 5653 5654 5654 5654 5654 5653 5653 5653 5652 5652 5652 5651 5651 5651 5650 5650 5649 5648 5647 5646 5645 5644 5644 5643 5642 5641 5640 5639 5638 5637 5636 5635 5634 5633 5633 5633 5633 5633 5633 5635 5636 5637 5639 5641 5643 5644 5644 5646 5647 5647 5648 5650 5652 5654 5655 5658 5661 5664 5667 5669 5669 5670 5671 5672 5674 5677 5679 5680 5682 5685 5687 5688 5690 5692 5693 5693 5695 5696 5698 5699
5644 5645 5645 5645 5645 5646 5647 5648 5648 5648 5647 5647 5647 5646 5646 5646 5645 5645 5645 5644 5643 5642 5641 5640 5638 5637 5636 5635 5635 5634 5632 5631 5630 5628 5627 5626 5625 5625 5624 5624 5624 5624 5623 5624 5624 5625 5627 5629 5631 5635 5635 5635 5636 5639 5639 5639 5641 5643 5645 5647 5649 5652 5656 5659 5661 5662 5663 5665 5665 5667 5671 5674 5675 5676 5679 5680 5681 5683 5685 5686 5687 5689 5691 5692 5693
5638 5639 5639 5640 5639 5640 5641 5641 5641 5640 5640 5640 5640 5640 5640 5640 5640 5639 5639 5638 5637 5636 5634 5633 5631 5630 5629 5627 5626 5625 5623 5622 5619 5618 5616 5615 5614 5615 5615 5614 5614 5614 5614 5614 5614 5614 5616 5618 5621 5625 5627 5626 5627 5629 5630 5631 5632 5634 5635 5638 5640 5643 5646 5650 5653 5655 5657 5659 5660 5661 5665 5667 5668 5670 5672 5673 5675 5677 5679 5681 5682 5683 5685 5686 5687
5631 5633 5634 5634 5634 5634 5635 5635 5634 5633 5633 5633 5634 5634 5634 5634 5634 5633 5632 5631 5630 5629 5627 5626 5624 5623 5621 5619 5618 5616 5614 5612 5609 5606 5605 5603 5603 5603 5604 5604 5604 5604 5605 5604 5603 5604 5605 5607 5610 5613 5616 5618 5618 5619 5621 5622 5624 5625 5625 5628 5631 5634 5637 5641 5645 5649 5651 5652 5654 5656 5658 5660 5662 5663 5665 5667 5670 5672 5674 5676 5676 5677 5678 5679 5680
5625 5627 5628 5628 5629 5629 5628 5628 5627 5627 5627 5627 5628 5628 5628 5627 5627 5626 5626 5625 5623 5621 5620 5618 5617 5615 5613 5611 5609 5607 5605 5602 5598 5596 5593 5592 5592 5592 5592 5593 5593 5594 5595 5594 5593 5594 5594 5596 5598 5601 5604 5607 5609 5610 5612 5614 5615 5616 5616 5619 5623 5625 5628 5633 5637 5642 5645 5646 5647 5648 5649 5652 5655 5657 5658 5661 5664 5666 5667 5669 5669 5670 5672 5673 5674
5619 5620 5621 5621 5622 5622 5621 5620 5620 5621 5621 5622 5622 5622 5621 5620 5620 5619 5618 5617 5616 5614 5612 5611 5609 5607 5605 5602 5599 5596 5594 5591 5588 5586 5583 5581 5581 5581 5581 5581 5582 5584 5584 5583 5582 5584 5583 5584 5587 5589 5592 5596 5599 5601 5603 5605 5606 5606 5607 5612 5615 5616 5619 5625 5629 5634 5637 5639 5640 5641 5643 5647 5649 5650 5652 5654 5656 5658 5659 5661 5662 5664 5665 5667 5668
5613 5614 5615 5615 5615 5616 5615 5614 5615 5616 5616 5616 5615 5615 5614 5613 5612 5612 5610 5609 5608 5606 5604 5603 5601 5598 5596 5593 5589 5585 5582 5580 5577 5576 5574 5572 5571 5571 5570 5569 5571 5573 5573 5572 5572 5573 5572 5574 5576 5578 5580 5584 5587 5590 5594 5596 5597 5597 5599 5604 5607 5608 5611 5616 5621 5625 5629 5633 5635 5634 5637 5641 5642 5643 5645 5647 5648 5650 5652 5654 5656 5658 5660 5661 5662